Weather Roundup
Issued by NWS Chicago, IL

Home | Current Version | Previous Version | Graphics & Text | Print | Product List | Glossary On
Versions: 1 2 3 4 5 6 7 8 9 10 11 12 13 14 15 16 17 18 19 20 21 22 23 24 25 26 27 28 29 30 31 32 33 34 35 36 37 38 39 40 41 42 43 44 45 46 47 48 49 50
000
NZUS59 KLOT 301912
HRRLOT

CHICAGO AREA WEATHER ROUNDUP
NATIONAL WEATHER SERVICE CHICAGO/ROMEOVILLE IL
200 PM CDT TUE JUN 30 2015

NOTE: "FAIR" INDICATES FEW OR NO CLOUDS BELOW 12,000 FEET WITH NO
SIGNIFICANT WEATHER AND/OR OBSTRUCTIONS TO VISIBILITY.

* THESE STATIONS ARE NOT UNDER NWS QUALITY CONTROL. THEY ALSO MAY NOT
  REPORT WEATHER SUCH AS PRECIPITATION OR FOG.

ILZ005-006-012>014-019>023-302000-
NORTHEAST ILLINOIS

CITY           SKY/WX    TMP DP  RH WIND       PRES   REMARKS
OHARE          PTSUNNY   76  60  57 N13       29.81S
MIDWAY         PTSUNNY   79  60  52 NW12      29.80F HX  80
AURORA         MOSUNNY   75  62  64 N15G22    29.83S
LANSING*       PTSUNNY   76  58  52 NW6       29.81S
JOLIET*        PTSUNNY   77  64  64 NW7       29.82S
WAUKEGAN         N/A    N/A N/A N/A MISG      29.81F
DUPAGE AIRPORT PTSUNNY   74  60  61 NW14      29.82S
WHEELING       PTSUNNY   75  59  57 NW12      29.83S
KANKAKEE*      MOSUNNY   77  65  64 NW7       29.82S
MORRIS*        MOSUNNY   76  63  62 NW9       29.81S
LEWIS AIRPORT* MOSUNNY   76  60  58 N13       29.82S
NORTHERLY IS     N/A     69  60  73 NE10        N/A
$$

WIZ051-052-058>065-066-070>072-302000-
SOUTHEAST WISCONSIN

CITY           SKY/WX    TMP DP  RH WIND       PRES   REMARKS
MILWAUKEE      PTSUNNY   66  59  78 N17G24    29.82S
KENOSHA*       PTSUNNY   74  60  61 NW12      29.82S
RACINE*        CLOUDY    68  58  70 N12       29.84R
BURLINGTON     PTSUNNY   69  58  67 NW10      29.83S
WAUKESHA       PTSUNNY   70  57  64 NW12      29.84S
WEST BEND      CLOUDY    72  59  64 NW13      29.83S
$$

INZ001>003-010>013-019-020-302000-
NORTHWEST INDIANA

CITY           SKY/WX    TMP DP  RH WIND       PRES   REMARKS
GARY*          MOSUNNY  N/A N/A N/A N8        29.82R
MICHIGAN CITY* NOT AVBL
RENSSELAER*    NOT AVBL
VALPARAISO     MOSUNNY   77  60  55 N8        29.81S
$$

LMZ740>746-302000-
SOUTHERN LAKE MICHIGAN

STATION/POSITION TIME  SKY/WX   TEMP WIND        PRES    VSBY
                                AIR  DIR/SP/G
                 (UTC)          (F)  (DEG/KT/KT) (MB)    (MI)
HARRISON CRIB    1800            66   30/  9/ 11   N/A
BURNHAM HARBOR   1900            68   50/  6/  9   N/A
CALUMET HARBOR   1800            71   20/  9/ 12   N/A
BURNS HARBOR     1800            67   40/ 11/ 12 1010.2F
MICHIGAN CITY    1800            64  350/ 12/ 14   N/A
$$

ABBREVIATIONS USED IN REMARKS
   TC - TEMPERATURE IN CELSIUS
  WCI - WIND CHILL INDEX
   HX - HEAT INDEX
  VSB - VISIBILITY
$$


USA.gov is the U.S. government's official web portal to all federal, state and local government web resources and services.